This demonstration page uses our WeatherBlox Daily Observations layout. Learn more.

Left ArrowRight Arrow

41.55636, -103.73856

Hourly Observations for June 3, 2019

Temp ( °F °C ) Dew Point ( °F °C ) Humidity (%) Winds ( mph kmh ) Pressure ( in mb ) Visibility ( mi km ) Precip ( " mm )
6:58 pm 18:58 Mostly Clear with Showers 55 12.6 50 10 84 84 SSW 17 28 29.95 1014 10 16 0.06 1.52
7:58 pm 19:58 Mostly Clear with Light Showers 56 13.6 50 10.1 80 80 S 13 20 29.91 1013 10 16 0.03 0.76
8:58 pm 20:58 undefined 60 15.5 50 10.2 71 71 Calm 29.87 1011 10 16 0.00 0.00
9:58 pm 21:58 undefined 64 17.5 42 5.7 46 46 Calm 29.87 1011 10 16 0.00 0.00
10:58 pm 22:58 undefined 55 12.6 50 10 84 84 S 9 15 29.92 1013 10 16 0.00 0.00
11:58 pm 23:58 undefined 52 11.2 48 8.7 85 85 S 7 11 29.90 1013 10 16 0.00 0.00
12:58 am 00:58 undefined 51 10.6 46 8 84 84 SSW 9 15 29.90 1013 10 16 0.00 0.00
1:58 am 01:58 undefined 53 11.4 47 8.1 80 80 SW 14 22 29.86 1011 10 16 0.00 0.00
2:58 am 02:58 undefined 50 10.1 46 7.5 84 84 SSW 13 20 29.87 1011 10 16 0.00 0.00
3:58 am 03:58 undefined 50 10.1 45 7.4 83 83 SSW 15 24 29.87 1011 10 16 0.00 0.00
4:58 am 04:58 undefined 50 9.8 45 7.3 85 85 W 9 15 29.93 1014 10 16 0.00 0.00
5:58 am 05:58 undefined 52 10.9 44 6.9 77 77 Calm 29.92 1013 10 16 0.00 0.00
6:58 am 06:58 undefined 55 12.8 48 8.9 77 77 WNW 5 7 29.92 1013 10 16 0.00 0.00
7:58 am 07:58 undefined 59 15.2 47 8.6 65 65 W 12 19 29.90 1012 10 16 0.00 0.00
8:58 am 08:58 undefined 64 17.5 47 8.6 56 56 WNW 8 13 29.88 1012 10 16 0.00 0.00
9:58 am 09:58 undefined 68 19.9 51 10.4 54 54 N 8 13 29.85 1011 10 16 0.00 0.00
10:58 am 10:58 undefined 70 20.9 50 10.1 50 50 N 5 7 29.88 1012 10 16 0.00 0.00
11:58 am 11:58 undefined 72 22.2 52 11.2 50 50 N 6 9 29.88 1012 10 16 0.00 0.00
12:58 pm 12:58 undefined 71 21.9 51 10.3 48 48 NW 3 6 29.89 1012 10 16 0.00 0.00
1:58 pm 13:58 undefined 73 23 45 7.3 37 37 E 6 9 29.86 1011 10 16 0.00 0.00
2:58 pm 14:58 undefined 71 21.7 45 7.2 39 39 NNE 7 11 29.87 1011 10 16 0.00 0.00
3:58 pm 15:58 undefined 75 23.7 41 5.1 30 30 ENE 5 7 29.83 1010 10 16 0.00 0.00
4:58 pm 16:58 undefined 71 21.5 49 9.7 47 47 WSW 5 7 29.87 1011 9 14 0.00 0.00
5:58 pm 17:58 Partly Cloudy with Showers 62 16.5 45 7.4 55 55 ESE 22 35 29.89 1012 10 16 0.02 0.51

Powered by AerisWeather